| time (UTC) | temp F | wind direction | speed knots | gust knots | rain 1hr in | rain 24hr in | rain mn in | humidity % | barometer mb |
| 20260505100604 | 54 | 194 | 0.0 | 0.0 | 0.00 | 0.00 | 0.00 | 80 | 1011.0 |
| 20260505100104 | 53 | 194 | 0.0 | 0.0 | 0.00 | 0.00 | 0.00 | 80 | 1011.0 |
| 20260505095604 | 53 | 194 | 0.0 | 0.0 | 0.00 | 0.00 | 0.00 | 80 | 1010.8 |
| 20260505094604 | 53 | 194 | 0.0 | 0.0 | 0.00 | 0.00 | 0.00 | 79 | 1010.6 |
| 20260505092603 | 54 | 194 | 0.0 | 0.0 | 0.00 | 0.00 | 0.00 | 77 | 1010.2 |
| 20260505092103 | 54 | 194 | 0.0 | 0.0 | 0.00 | 0.00 | 0.00 | 76 | 1010.1 |
| 20260505091604 | 54 | 194 | 0.0 | 0.0 | 0.00 | 0.00 | 0.00 | 75 | 1010.0 |
| 20260505091104 | 55 | 194 | 0.0 | 0.0 | 0.00 | 0.00 | 0.00 | 75 | 1010.1 |
| 20260505090604 | 55 | 194 | 0.0 | 0.0 | 0.00 | 0.00 | 0.00 | 74 | 1010.0 |
| 20260505090104 | 56 | 194 | 0.0 | 0.0 | 0.00 | 0.00 | 0.00 | 73 | 1010.1 |
| 20260505085604 | 56 | 194 | 0.0 | 0.0 | 0.00 | 0.00 | 0.00 | 73 | 1010.1 |
| 20260505085104 | 56 | 194 | 0.0 | 0.0 | 0.00 | 0.00 | 0.00 | 72 | 1010.2 |
| 20260505084604 | 56 | 194 | 0.0 | 1.7 | 0.00 | 0.00 | 0.00 | 72 | 1010.3 |
| 20260505084104 | 57 | 228 | 0.0 | 0.9 | 0.00 | 0.00 | 0.00 | 72 | 1010.3 |
| 20260505083103 | 57 | 237 | 0.0 | 1.7 | 0.00 | 0.00 | 0.00 | 71 | 1010.3 |
| 20260505082604 | 57 | 278 | 0.0 | 0.0 | 0.00 | 0.00 | 0.00 | 71 | 1010.4 |
| 20260505082104 | 57 | 272 | 0.0 | 0.0 | 0.00 | 0.00 | 0.00 | 70 | 1010.3 |
| 20260505081603 | 57 | 272 | 0.0 | 0.9 | 0.00 | 0.00 | 0.00 | 69 | 1010.2 |
| 20260505081103 | 58 | 272 | 0.0 | 0.9 | 0.00 | 0.00 | 0.00 | 69 | 1010.2 |
| 20260505080605 | 58 | 278 | 0.0 | 1.7 | 0.00 | 0.00 | 0.00 | 69 | 1010.1 |
| 20260505080104 | 58 | 280 | 0.9 | 4.3 | 0.00 | 0.00 | 0.00 | 69 | 1010.2 |
| 20260505075604 | 58 | 254 | 0.9 | 2.6 | 0.00 | 0.00 | 0.00 | 69 | 1010.3 |
| 20260505075104 | 58 | 252 | 1.7 | 4.3 | 0.00 | 0.00 | 0.00 | 68 | 1010.3 |
| 20260505074603 | 58 | 258 | 0.9 | 1.7 | 0.00 | 0.00 | 0.00 | 68 | 1010.4 |
| 20260505074104 | 59 | 280 | 1.7 | 4.3 | 0.00 | 0.00 | 0.00 | 68 | 1010.4 |
| 20260505073605 | 59 | 259 | 0.9 | 2.6 | 0.00 | 0.00 | 0.00 | 68 | 1010.4 |
| 20260505073104 | 59 | 255 | 0.0 | 2.6 | 0.00 | 0.00 | 0.00 | 67 | 1010.4 |
| 20260505072104 | 59 | 239 | 1.7 | 8.7 | 0.00 | 0.00 | 0.00 | 67 | 1010.4 |
| 20260505071605 | 59 | 250 | 0.9 | 8.7 | 0.00 | 0.00 | 0.00 | 66 | 1010.3 |
| 20260505071105 | 59 | 264 | 1.7 | 4.3 | 0.00 | 0.00 | 0.00 | 66 | 1010.4 |
| 20260505070604 | 59 | 298 | 1.7 | 5.2 | 0.00 | 0.00 | 0.00 | 66 | 1010.4 |
| 20260505070104 | 59 | 295 | 0.9 | 2.6 | 0.00 | 0.00 | 0.00 | 65 | 1010.4 |
| 20260505065104 | 60 | 259 | 0.0 | 5.2 | 0.00 | 0.00 | 0.00 | 64 | 1010.3 |
| 20260505064605 | 60 | 251 | 1.7 | 7.0 | 0.00 | 0.00 | 0.00 | 63 | 1010.2 |
| 20260505064104 | 60 | 272 | 2.6 | 7.0 | 0.00 | 0.00 | 0.00 | 63 | 1010.3 |
| 20260505063603 | 60 | 219 | 4.3 | 7.8 | 0.00 | 0.00 | 0.00 | 63 | 1010.3 |
| 20260505063104 | 60 | 204 | 1.7 | 4.3 | 0.00 | 0.00 | 0.00 | 63 | 1010.2 |
| 20260505062604 | 60 | 229 | 1.7 | 5.2 | 0.00 | 0.00 | 0.00 | 62 | 1010.2 |
| 20260505062104 | 60 | 217 | 1.7 | 5.2 | 0.00 | 0.00 | 0.00 | 62 | 1010.3 |
| 20260505061604 | 60 | 230 | 1.7 | 6.1 | 0.00 | 0.00 | 0.00 | 62 | 1010.3 |
| 20260505060605 | 60 | 249 | 2.6 | 6.1 | 0.00 | 0.00 | 0.00 | 61 | 1010.4 |
| 20260505060105 | 60 | 243 | 1.7 | 5.2 | 0.00 | 0.00 | 0.00 | 60 | 1010.5 |
| 20260505055604 | 60 | 271 | 4.3 | 8.7 | 0.00 | 0.00 | 0.00 | 60 | 1010.5 |
| 20260505055104 | 60 | 304 | 0.0 | 1.7 | 0.00 | 0.00 | 0.00 | 59 | 1010.5 |
| 20260505054605 | 60 | 294 | 1.7 | 6.1 | 0.00 | 0.00 | 0.00 | 59 | 1010.5 |
| 20260505054105 | 60 | 281 | 1.7 | 7.0 | 0.00 | 0.00 | 0.00 | 59 | 1010.6 |
| 20260505053603 | 61 | 258 | 2.6 | 6.1 | 0.00 | 0.00 | 0.00 | 58 | 1010.6 |
| 20260505053104 | 61 | 282 | 1.7 | 7.0 | 0.00 | 0.00 | 0.00 | 58 | 1010.6 |
| 20260505051604 | 60 | 281 | 2.6 | 5.2 | 0.00 | 0.00 | 0.00 | 58 | 1010.5 |
| 20260505051104 | 61 | 290 | 0.9 | 7.0 | 0.00 | 0.00 | 0.00 | 57 | 1010.5 |
| 20260505050604 | 61 | 252 | 0.9 | 2.6 | 0.00 | 0.00 | 0.00 | 57 | 1010.5 |
| 20260505050105 | 61 | 306 | 1.7 | 5.2 | 0.00 | 0.00 | 0.00 | 56 | 1010.4 |
| 20260505041604 | 61 | 281 | 1.7 | 7.0 | 0.00 | 0.00 | 0.00 | 56 | 1010.7 |
| 20260505041104 | 61 | 276 | 0.0 | 0.9 | 0.00 | 0.00 | 0.00 | 56 | 1010.6 |
| 20260505040604 | 61 | 276 | 0.9 | 4.3 | 0.00 | 0.00 | 0.00 | 55 | 1010.7 |
| 20260505040104 | 61 | 242 | 1.7 | 7.8 | 0.00 | 0.00 | 0.00 | 56 | 1010.7 |
| 20260505035604 | 61 | 270 | 0.0 | 1.7 | 0.00 | 0.00 | 0.00 | 56 | 1010.7 |
| 20260505035104 | 61 | 273 | 0.9 | 4.3 | 0.00 | 0.00 | 0.00 | 56 | 1010.7 |
| 20260505034604 | 60 | 263 | 1.7 | 6.1 | 0.00 | 0.00 | 0.00 | 57 | 1010.7 |
| 20260505034104 | 60 | 266 | 0.9 | 2.6 | 0.00 | 0.00 | 0.00 | 57 | 1010.8 |
| 20260505033605 | 60 | 266 | 0.9 | 2.6 | 0.00 | 0.00 | 0.00 | 56 | 1010.8 |
| 20260505033104 | 60 | 266 | 1.7 | 2.6 | 0.00 | 0.00 | 0.00 | 56 | 1010.9 |
| 20260505032605 | 60 | 266 | 0.0 | 2.6 | 0.00 | 0.00 | 0.00 | 57 | 1010.9 |
| 20260505032105 | 60 | 266 | 0.0 | 1.7 | 0.00 | 0.00 | 0.00 | 56 | 1010.9 |
| 20260505031604 | 60 | 266 | 0.0 | 1.7 | 0.00 | 0.00 | 0.00 | 56 | 1010.9 |
| 20260505031103 | 61 | 266 | 0.0 | 0.9 | 0.00 | 0.00 | 0.00 | 56 | 1010.9 |
| 20260505030104 | 61 | 266 | 0.9 | 2.6 | 0.00 | 0.00 | 0.00 | 55 | 1010.9 |
| 20260505025603 | 61 | 266 | 0.9 | 1.7 | 0.00 | 0.00 | 0.00 | 55 | 1010.9 |
| 20260505024604 | 62 | 254 | 0.0 | 1.7 | 0.00 | 0.00 | 0.00 | 54 | 1010.9 |
| 20260505024105 | 62 | 280 | 1.7 | 4.3 | 0.00 | 0.00 | 0.00 | 54 | 1010.9 |
| 20260505023104 | 62 | 274 | 1.7 | 2.6 | 0.00 | 0.00 | 0.00 | 54 | 1011.0 |
| 20260505022605 | 62 | 272 | 0.9 | 5.2 | 0.00 | 0.00 | 0.00 | 54 | 1011.0 |
| 20260505022105 | 62 | 286 | 0.0 | 2.6 | 0.00 | 0.00 | 0.00 | 54 | 1011.0 |
| 20260505021604 | 62 | 201 | 0.9 | 1.7 | 0.00 | 0.00 | 0.00 | 54 | 1011.0 |
| 20260505021103 | 62 | 234 | 0.9 | 2.6 | 0.00 | 0.00 | 0.00 | 54 | 1011.1 |
| 20260505020604 | 62 | 244 | 0.0 | 2.6 | 0.00 | 0.00 | 0.00 | 53 | 1011.0 |
| 20260505020104 | 62 | 284 | 0.0 | 5.2 | 0.00 | 0.00 | 0.00 | 53 | 1011.0 |
| 20260505015604 | 62 | 233 | 0.9 | 2.6 | 0.00 | 0.00 | 0.00 | 53 | 1010.9 |
| 20260505015104 | 62 | 222 | 0.0 | 0.9 | 0.00 | 0.00 | 0.00 | 53 | 1010.9 |
| 20260505014604 | 62 | 222 | 0.9 | 2.6 | 0.00 | 0.00 | 0.00 | 53 | 1010.9 |
| 20260505014103 | 62 | 262 | 0.9 | 2.6 | 0.00 | 0.00 | 0.00 | 53 | 1010.9 |
| 20260505013604 | 62 | 253 | 0.9 | 2.6 | 0.00 | 0.00 | 0.00 | 53 | 1010.8 |
| 20260505013105 | 62 | 253 | 0.9 | 1.7 | 0.00 | 0.00 | 0.00 | 53 | 1010.7 |
| 20260505012604 | 63 | 251 | 0.9 | 2.6 | 0.00 | 0.00 | 0.00 | 52 | 1010.6 |
| 20260505012104 | 63 | 251 | 0.0 | 0.9 | 0.00 | 0.00 | 0.00 | 52 | 1010.6 |
| 20260505011604 | 63 | 251 | 0.0 | 0.9 | 0.00 | 0.00 | 0.00 | 52 | 1010.5 |
| 20260505011104 | 63 | 251 | 0.0 | 1.7 | 0.00 | 0.00 | 0.00 | 51 | 1010.5 |
| 20260505010604 | 63 | 251 | 0.0 | 0.9 | 0.00 | 0.00 | 0.00 | 51 | 1010.4 |
| 20260505005604 | 64 | 251 | 0.0 | 0.9 | 0.00 | 0.00 | 0.00 | 49 | 1010.3 |
| 20260505005104 | 64 | 251 | 0.0 | 0.9 | 0.00 | 0.00 | 0.00 | 49 | 1010.2 |
| 20260505004604 | 64 | 251 | 0.0 | 0.0 | 0.00 | 0.00 | 0.00 | 49 | 1010.1 |
| 20260505003604 | 65 | 251 | 0.9 | 1.7 | 0.00 | 0.00 | 0.00 | 48 | 1010.0 |
| 20260505003105 | 65 | 251 | 0.0 | 0.0 | 0.00 | 0.00 | 0.00 | 47 | 1010.0 |
| 20260505002604 | 65 | 251 | 0.9 | 5.2 | 0.00 | 0.00 | 0.00 | 47 | 1009.9 |
| 20260505002104 | 66 | 274 | 0.9 | 2.6 | 0.00 | 0.00 | 0.00 | 47 | 1009.8 |
| 20260505001604 | 66 | 267 | 0.9 | 2.6 | 0.00 | 0.00 | 0.00 | 46 | 1009.7 |
| 20260505001104 | 66 | 266 | 0.9 | 2.6 | 0.00 | 0.00 | 0.00 | 45 | 1009.6 |
| 20260505000603 | 67 | 265 | 0.0 | 0.0 | 0.00 | 0.00 | 0.00 | 45 | 1009.5 |
| 20260505000104 | 67 | 265 | 0.0 | 1.7 | 0.00 | 0.00 | 0.00 | 44 | 1009.4 |
| 20260504235604 | 68 | 265 | 0.0 | 0.0 | 0.00 | 0.00 | 0.00 | 43 | 1009.4 |
| 20260504235104 | 68 | 264 | 1.7 | 4.3 | 0.00 | 0.00 | 0.00 | 42 | 1009.3 |
| 20260504234603 | 69 | 282 | 0.0 | 6.1 | 0.00 | 0.00 | 0.00 | 41 | 1009.2 |
| 20260504234104 | 69 | 279 | 1.7 | 5.2 | 0.00 | 0.00 | 0.00 | 41 | 1009.2 |
| 20260504233604 | 69 | 285 | 2.6 | 7.0 | 0.00 | 0.00 | 0.00 | 40 | 1009.2 |
| 20260504232604 | 69 | 244 | 1.7 | 4.3 | 0.00 | 0.00 | 0.00 | 41 | 1009.0 |
| 20260504232104 | 70 | 279 | 1.7 | 7.0 | 0.00 | 0.00 | 0.00 | 40 | 1008.9 |
| 20260504231604 | 70 | 231 | 0.9 | 10.4 | 0.00 | 0.00 | 0.00 | 41 | 1008.9 |
| 20260504231103 | 70 | 254 | 2.6 | 6.1 | 0.00 | 0.00 | 0.00 | 40 | 1008.9 |
| 20260504230604 | 70 | 260 | 2.6 | 10.4 | 0.00 | 0.00 | 0.00 | 40 | 1008.8 |
| 20260504230105 | 71 | 274 | 2.6 | 8.7 | 0.00 | 0.00 | 0.00 | 38 | 1008.8 |
| 20260504225604 | 71 | 270 | 4.3 | 10.4 | 0.00 | 0.00 | 0.00 | 39 | 1008.7 |
| 20260504225103 | 71 | 236 | 4.3 | 7.8 | 0.00 | 0.00 | 0.00 | 38 | 1008.7 |
| 20260504224604 | 71 | 229 | 4.3 | 10.4 | 0.00 | 0.00 | 0.00 | 37 | 1008.7 |
| 20260504224104 | 71 | 288 | 4.3 | 12.2 | 0.00 | 0.00 | 0.00 | 37 | 1008.7 |
| 20260504223104 | 72 | 263 | 4.3 | 10.4 | 0.00 | 0.00 | 0.00 | 37 | 1008.6 |
| 20260504222103 | 72 | 261 | 4.3 | 10.4 | 0.00 | 0.00 | 0.00 | 38 | 1008.6 |
| 20260504221604 | 72 | 285 | 5.2 | 11.3 | 0.00 | 0.00 | 0.00 | 37 | 1008.7 |
| 20260504221104 | 72 | 302 | 4.3 | 12.2 | 0.00 | 0.00 | 0.00 | 37 | 1008.7 |
| 20260504220104 | 73 | 274 | 3.5 | 10.4 | 0.00 | 0.00 | 0.00 | 37 | 1008.8 |
| 20260504215603 | 73 | 264 | 2.6 | 13.9 | 0.00 | 0.00 | 0.00 | 37 | 1008.8 |
| 20260504215105 | 73 | 292 | 2.6 | 13.0 | 0.00 | 0.00 | 0.00 | 36 | 1008.8 |
| 20260504214603 | 73 | 274 | 1.7 | 14.8 | 0.00 | 0.00 | 0.00 | 37 | 1008.9 |
| 20260504213603 | 73 | 290 | 6.1 | 17.4 | 0.00 | 0.00 | 0.00 | 36 | 1009.1 |
| 20260504213104 | 73 | 277 | 4.3 | 7.8 | 0.00 | 0.00 | 0.00 | 37 | 1009.1 |
| 20260504212604 | 73 | 268 | 4.3 | 10.4 | 0.00 | 0.00 | 0.00 | 35 | 1009.2 |
| 20260504212103 | 74 | 242 | 6.1 | 13.0 | 0.00 | 0.00 | 0.00 | 36 | 1009.1 |
| 20260504211604 | 74 | 276 | 5.2 | 10.4 | 0.00 | 0.00 | 0.00 | 36 | 1009.1 |
| 20260504210603 | 73 | 288 | 7.8 | 14.8 | 0.00 | 0.00 | 0.00 | 35 | 1009.2 |
| 20260504205604 | 74 | 268 | 5.2 | 15.6 | 0.00 | 0.00 | 0.00 | 36 | 1009.3 |
| 20260504205104 | 74 | 286 | 4.3 | 13.0 | 0.00 | 0.00 | 0.00 | 36 | 1009.3 |
| 20260504204604 | 74 | 235 | 2.6 | 10.4 | 0.00 | 0.00 | 0.00 | 37 | 1009.2 |
| 20260504204103 | 74 | 304 | 8.7 | 15.6 | 0.00 | 0.00 | 0.00 | 34 | 1009.3 |
| 20260504203605 | 74 | 283 | 5.2 | 10.4 | 0.00 | 0.00 | 0.00 | 37 | 1009.2 |
| 20260504202604 | 74 | 298 | 6.1 | 12.2 | 0.00 | 0.00 | 0.00 | 34 | 1009.3 |
| 20260504202104 | 74 | 299 | 8.7 | 13.9 | 0.00 | 0.00 | 0.00 | 33 | 1009.3 |
| 20260504201104 | 74 | 269 | 5.2 | 10.4 | 0.00 | 0.00 | 0.00 | 35 | 1009.3 |
| 20260504200604 | 73 | 299 | 6.1 | 14.8 | 0.00 | 0.00 | 0.00 | 35 | 1009.4 |
| 20260504200103 | 74 | 277 | 7.8 | 13.0 | 0.00 | 0.00 | 0.00 | 35 | 1009.5 |
| 20260504195603 | 74 | 303 | 3.5 | 13.0 | 0.00 | 0.00 | 0.00 | 34 | 1009.6 |
| 20260504195103 | 74 | 272 | 3.5 | 13.0 | 0.00 | 0.00 | 0.00 | 37 | 1009.7 |
| 20260504194604 | 74 | 258 | 6.1 | 12.2 | 0.00 | 0.00 | 0.00 | 36 | 1009.8 |
| 20260504194105 | 73 | 293 | 4.3 | 13.9 | 0.00 | 0.00 | 0.00 | 35 | 1009.8 |
| 20260504193604 | 74 | 281 | 7.8 | 13.9 | 0.00 | 0.00 | 0.00 | 35 | 1010.0 |
| 20260504193104 | 73 | 293 | 7.0 | 11.3 | 0.00 | 0.00 | 0.00 | 34 | 1009.9 |
| 20260504191605 | 73 | 282 | 7.0 | 12.2 | 0.00 | 0.00 | 0.00 | 34 | 1009.9 |
| 20260504191105 | 73 | 276 | 3.5 | 11.3 | 0.00 | 0.00 | 0.00 | 36 | 1009.9 |
| 20260504190604 | 73 | 289 | 5.2 | 13.9 | 0.00 | 0.00 | 0.00 | 36 | 1010.1 |
| 20260504185605 | 73 | 293 | 6.1 | 17.4 | 0.00 | 0.00 | 0.00 | 35 | 1010.2 |
| 20260504185104 | 73 | 307 | 5.2 | 19.1 | 0.00 | 0.00 | 0.00 | 35 | 1010.1 |
| 20260504184603 | 73 | 267 | 7.8 | 13.0 | 0.00 | 0.00 | 0.00 | 36 | 1010.2 |
| 20260504184104 | 72 | 245 | 5.2 | 14.8 | 0.00 | 0.00 | 0.00 | 37 | 1010.2 |
| 20260504182604 | 72 | 264 | 7.0 | 12.2 | 0.00 | 0.00 | 0.00 | 37 | 1010.4 |
| 20260504181604 | 72 | 315 | 6.1 | 12.2 | 0.00 | 0.00 | 0.00 | 37 | 1010.5 |
| 20260504181103 | 71 | 269 | 5.2 | 13.9 | 0.00 | 0.00 | 0.00 | 38 | 1010.7 |
| 20260504180103 | 70 | 271 | 5.2 | 10.4 | 0.00 | 0.00 | 0.00 | 40 | 1010.8 |
| 20260504175605 | 71 | 271 | 5.2 | 14.8 | 0.00 | 0.00 | 0.00 | 38 | 1010.9 |
| 20260504175103 | 71 | 280 | 7.8 | 19.1 | 0.00 | 0.00 | 0.00 | 37 | 1010.9 |
| 20260504174605 | 71 | 302 | 5.2 | 12.2 | 0.00 | 0.00 | 0.00 | 36 | 1011.0 |
| 20260504174104 | 71 | 312 | 6.1 | 13.9 | 0.00 | 0.00 | 0.00 | 39 | 1011.1 |
| 20260504173604 | 71 | 295 | 6.1 | 13.0 | 0.00 | 0.00 | 0.00 | 37 | 1011.2 |
| 20260504173104 | 70 | 306 | 5.2 | 10.4 | 0.00 | 0.00 | 0.00 | 37 | 1011.3 |
| 20260504172604 | 70 | 291 | 7.0 | 13.9 | 0.00 | 0.00 | 0.00 | 37 | 1011.3 |
| 20260504172103 | 70 | 285 | 4.3 | 11.3 | 0.00 | 0.00 | 0.00 | 40 | 1011.3 |
| 20260504171604 | 69 | 263 | 7.0 | 15.6 | 0.00 | 0.00 | 0.00 | 39 | 1011.4 |
| 20260504171104 | 69 | 251 | 7.0 | 15.6 | 0.00 | 0.00 | 0.00 | 39 | 1011.4 |
| 20260504170604 | 69 | 242 | 6.1 | 15.6 | 0.00 | 0.00 | 0.00 | 40 | 1011.4 |
| 20260504160104 | 68 | 274 | 4.3 | 13.0 | 0.00 | 0.00 | 0.00 | 39 | 1012.0 |
| 20260504151103 | 67 | 317 | 5.2 | 13.0 | 0.00 | 0.00 | 0.00 | 39 | 1012.6 |
| 20260504150605 | 66 | 330 | 5.2 | 12.2 | 0.00 | 0.00 | 0.00 | 41 | 1012.7 |
| 20260504150105 | 66 | 280 | 7.8 | 14.8 | 0.00 | 0.00 | 0.00 | 39 | 1012.8 |
| 20260504141105 | 64 | 299 | 7.0 | 17.4 | 0.00 | 0.00 | 0.00 | 39 | 1013.5 |
| 20260504140604 | 63 | 302 | 6.1 | 17.4 | 0.00 | 0.00 | 0.00 | 41 | 1013.5 |
| 20260504140107 | 63 | 299 | 7.0 | 14.8 | 0.00 | 0.00 | 0.00 | 40 | 1013.4 |
| 20260504130605 | 61 | 285 | 8.7 | 17.4 | 0.00 | 0.00 | 0.00 | 42 | 1013.7 |
| 20260504130105 | 60 | 316 | 4.3 | 14.8 | 0.00 | 0.00 | 0.00 | 44 | 1013.9 |
| 20260504120105 | 56 | 283 | 2.6 | 10.4 | 0.00 | 0.00 | 0.00 | 51 | 1014.1 |
| 20260504110605 | 51 | 299 | 3.5 | 7.8 | 0.00 | 0.00 | 0.00 | 58 | 1014.1 |
| 20260504110106 | 50 | 298 | 1.7 | 2.6 | 0.00 | 0.00 | 0.00 | 59 | 1014.2 |